Location: Atbuku
(36.4936°N, 30.4362°E)
Time: 04:32:52
(UTC+00:00)

Okean 1-7 Rocket - Pass Details

Date: 11 December 2025
Orbit: 610 x 644 km, 82.5° (Epoch: 13 January)

Event Time Altitude Azimuth Distance (km) Brightness Sun altitude
Rises 15:10:54 0° 360° (N) 2,890 6.7 -5.9°
Reaches altitude 10° 15:13:14 10° 7° (N) 1,977 5.9 -6.3°
Maximum altitude 15:17:25 44° 80° (E) 846 3.8 -7.0°
Drops below altitude 10° 15:21:33 10° 153° (SSE) 1,956 6.1 -7.8°
Sets 15:23:50 0° 160° (SSE) 2,855 7.0 -8.2°
